Flag for Germany Weather past 2 weeks in Radebeul, Saxony, Germany

36 °F

Passing clouds.

Feels Like: 32 °F
Forecast: 29 / 42 °F
Wind: 5 mph from Northwest

Location: Dresden-Klotzsche

Current Time: Nov 27, 2015 at 12:55:25 AM

Latest Report: Nov 27, 2015 at 12:20 AM

Visibility: N/A

Pressure: 30.12 "Hg

Humidity: 93%

Dew point: 34 °F

Location of RadebeulLocation

Historic Weather in Radebeul — Graph


Radebeul temperature yesterday

Maximum temperature yesterday: 39 °F (at 11:20 AM)
Minimum temperature yesterday: 36 °F (at 4:20 AM)
Average temperature yesterday: 38 °F

Past Weeks' High & Low Weather Summary

High59 °F (Nov 13, 1:50 PM)100% (Nov 14, 10:20 PM)30.33 "Hg (Nov 14, 10:20 PM)
Low27 °F (Nov 24, 2:20 AM)55% (Nov 18, 11:50 AM)29.36 "Hg (Nov 21, 12:20 PM)
Average44 °F82%29.88 "Hg
* Reported Nov 11 11:20 PM — Nov 26 11:50 PM, Radebeul, Weather by CustomWeather, © 2015

Note: Actual official high and low records may vary slightly from our data, if they occured in-between our weather recording intervals... More about our weather records


Radebeul weather history for previous 24 hours

Time TempWeatherWind HumidityBarometerVisibility
11:50 PM
Thu, Nov 26
36 °FPassing clouds.3 mph93%30.12 "HgN/A
11:20 PM36 °FPassing clouds.3 mph93%30.12 "HgN/A
10:50 PM37 °FPartly cloudy.3 mph87%30.12 "HgN/A
10:20 PM36 °FPassing clouds.5 mph93%30.12 "HgN/A
9:50 PM36 °FPassing clouds.3 mph93%30.12 "HgN/A
9:20 PM37 °FPassing clouds.2 mph87%30.09 "HgN/A
8:50 PM37 °FPartly cloudy.1 mph87%30.09 "HgN/A
8:20 PM37 °FPartly cloudy.3 mph93%30.09 "HgN/A
7:50 PM37 °FPassing clouds.5 mph93%30.09 "HgN/A
7:20 PM37 °FPartly cloudy.3 mph93%30.07 "HgN/A
6:50 PM37 °FPassing clouds.5 mph93%30.07 "HgN/A
6:20 PM37 °FPartly cloudy.5 mph100%30.04 "HgN/A
5:50 PM39 °FPassing clouds.6 mph93%30.04 "HgN/A
5:20 PM39 °FPartly cloudy.7 mph93%30.04 "Hg6 mi
4:50 PM39 °FLight rain. Partly cloudy.1 mph93%30.01 "Hg5 mi
4:20 PM39 °FLight rain. Partly cloudy.2 mph93%30.01 "Hg6 mi
3:50 PM39 °FPartly sunny.3 mph93%29.98 "HgN/A
3:20 PM39 °FPartly sunny.2 mph93%29.98 "HgN/A
2:50 PM39 °FBroken clouds.3 mph93%29.98 "Hg6 mi
2:20 PM39 °FPartly sunny.6 mph93%29.95 "Hg6 mi
1:50 PM39 °FPartly sunny.5 mph93%29.95 "Hg5 mi
1:20 PM39 °FDrizzle. Partly sunny.7 mph93%29.95 "Hg4 mi
12:50 PM39 °FPartly sunny.7 mph93%29.92 "Hg5 mi
12:20 PM39 °FPartly sunny.7 mph93%29.92 "Hg5 mi
11:50 AM39 °FPartly sunny.6 mph93%29.92 "Hg5 mi
11:20 AM39 °FPartly sunny.5 mph93%29.92 "Hg5 mi
10:50 AM37 °FPartly sunny.5 mph93%29.89 "Hg5 mi
10:20 AM37 °FPartly sunny.3 mph93%29.89 "Hg5 mi
9:50 AM37 °FPartly sunny.3 mph93%29.89 "Hg6 mi
9:20 AM37 °FPartly sunny.3 mph93%29.86 "Hg6 mi
8:50 AM37 °FPartly sunny.3 mph87%29.86 "HgN/A
8:20 AM36 °FPartly sunny.5 mph93%29.83 "HgN/A
7:20 AM37 °FPassing clouds.7 mph87%29.80 "HgN/A
6:50 AM37 °FPassing clouds.6 mph87%29.80 "HgN/A
6:20 AM36 °FPassing clouds.5 mph87%29.80 "HgN/A
5:50 AM37 °FPassing clouds.6 mph87%29.77 "HgN/A
5:20 AM37 °FOvercast.7 mph87%29.77 "HgN/A
4:50 AM36 °FOvercast.5 mph93%29.77 "HgN/A
4:20 AM36 °FOvercast.5 mph100%29.74 "HgN/A
3:50 AM37 °FOvercast.5 mph87%29.74 "HgN/A
3:20 AM37 °FOvercast.5 mph87%29.74 "HgN/A
2:50 AM37 °FMostly cloudy.5 mph87%29.74 "HgN/A
2:20 AM37 °FOvercast.3 mph87%29.74 "HgN/A
1:20 AM37 °FLight rain. Low clouds.3 mph87%29.71 "HgN/A
12:50 AM37 °FLight rain. Overcast.5 mph87%29.71 "HgN/A
12:20 AM37 °FLight rain. Overcast.5 mph87%29.71 "HgN/A
Weather by CustomWeather, © 2015

See weather overviewHow to use our weather pages